Tracking 19634 objects as of 21-May-2019
HD Live streaming from Space Station
objects crossing your sky now

EXPLORER 36 (GEOS 2)

Track EXPLORER 36 (GEOS 2) now!
10-day predictions
EXPLORER 36 (GEOS 2) is classified as:


NORAD ID: 3093
Int'l Code: 1968-002A
Perigee: 1,088.5 km
Apogee: 1,580.4 km
Inclination: 105.8 °
Period: 112.2 minutes
Semi major axis: 7705 km
RCS: 1.4776 m2 (large)
Launch date: January 11, 1968
Source: United States (US)
Launch site: AIR FORCE WESTERN TEST RANGE (AFWTR)
aabbcc
Your satellite tracking list
Your tracking list is empty




NASA's NSSDC Master Catalog

Two Line Element Set (TLE):
1  3093U 68002A   19140.76750560 -.00000051 +00000-0 +84761-4 0  9999
2  3093 105.7869 038.2391 0319240 340.1700 051.7450 12.83531080405757
Source of the keplerian elements: AFSPC